Location: ?
(35.4214°N, 139.3011°E)
Time: 08:32:55
(UTC+00:00)

DELTA 2 R/B (1) - Visible Passes

Search period start: 23 October 2020 00:00
Search period end: 02 November 2020 00:00
Orbit: 790 x 803 km, 39.6° (Epoch: 22 October)

Date Brightness Start Highest point End Pass type
(mag) Time Alt. Az. Time Alt. Az. Time Alt. Az.
23 Oct 4.0 18:35:21 55° NNE 18:35:21 55° NNE 18:40:28 10° E visible
23 Oct 3.6 20:16:08 11° WNW 20:21:39 84° SSW 20:27:16 10° ESE visible
24 Oct 5.0 18:06:11 34° ENE 18:06:11 34° ENE 18:09:30 10° E visible
24 Oct 3.6 19:46:58 22° WNW 19:50:43 89° SSW 19:56:21 10° ESE visible
25 Oct 6.0 17:37:03 18° ENE 17:37:03 18° ENE 17:38:32 10° E visible
25 Oct 3.5 19:17:50 43° WNW 19:19:47 87° NNE 19:25:24 10° ESE visible
26 Oct 3.5 18:48:45 82° N 18:48:50 83° NNE 18:54:28 10° ESE visible
26 Oct 4.5 20:30:00 10° W 20:35:02 35° SW 20:40:03 10° SSE visible
27 Oct 4.5 18:19:43 44° E 18:19:43 44° E 18:23:32 10° ESE visible
27 Oct 4.3 20:00:30 18° W 20:04:08 38° SSW 20:09:16 10° SSE visible
28 Oct 5.7 17:50:44 21° E 17:50:44 21° E 17:52:34 10° ESE visible
28 Oct 4.2 19:31:31 32° WSW 19:33:15 41° SSW 19:38:27 10° SE visible
29 Oct 4.1 19:02:36 44° SSW 19:02:36 44° SSW 19:07:39 10° SE visible
30 Oct 4.9 18:33:45 30° SSE 18:33:45 30° SSE 18:36:49 10° SE visible
30 Oct 5.6 20:15:18 10° WSW 20:17:06 12° SW 20:18:55 10° SSW visible
31 Oct 5.9 18:04:56 15° SE 18:04:56 15° SE 18:05:57 10° SE visible
31 Oct 5.5 19:45:44 13° SW 19:46:15 13° SW 19:48:43 10° SSW visible
01 Nov 5.6 19:16:58 13° SSW 19:16:58 13° SSW 19:18:21 10° S visible
